N3PL Weather Reports


time (UTC)temp
C
wind
direction
speed
KPH
gust
KPH
rain 1hr
cm
rain 24hr
cm
rain mn
cm
humidity
%
barometer
mb
20260505035505 16 248 0.0 0.0 0.00 0.00 0.00 51 1005.9
20260505035059 16 248 0.0 0.0 0.00 0.00 0.00 51 1005.9
20260505034602 16 248 0.0 0.0 0.00 0.00 0.00 50 1005.9
20260505034105 16 248 0.0 0.0 0.00 0.00 0.00 50 1005.9
20260505033554 16 248 0.0 0.0 0.00 0.00 0.00 49 1005.9
20260505033056 16 248 0.0 0.0 0.00 0.00 0.00 49 1005.9
20260505032600 16 248 0.0 0.0 0.00 0.00 0.00 48 1006.0
20260505032102 16 248 0.0 0.0 0.00 0.00 0.00 47 1006.0
20260505031605 16 248 0.0 0.0 0.00 0.00 0.00 47 1006.0
20260505031054 16 248 0.0 0.0 0.00 0.00 0.00 46 1006.0
20260505030559 16 248 0.0 0.0 0.00 0.00 0.00 46 1006.0
20260505030103 17 248 0.0 0.0 0.00 0.00 0.00 45 1006.0
20260505025501 17 248 0.0 0.0 0.00 0.00 0.00 45 1006.0
20260505025054 17 248 0.0 0.0 0.00 0.00 0.00 45 1006.0
20260505024557 17 248 0.0 0.0 0.00 0.00 0.00 44 1006.0
20260505024100 17 248 0.0 0.0 0.00 0.00 0.00 44 1006.1
20260505023548 17 248 0.0 0.0 0.00 0.00 0.00 43 1006.1
20260505023036 17 248 0.0 0.0 0.00 0.00 0.00 43 1006.1
20260505022538 17 248 0.0 0.0 0.00 0.00 0.00 43 1006.1
20260505022047 17 248 0.0 0.0 0.00 0.00 0.00 43 1006.1
20260505021552 17 248 0.0 0.0 0.00 0.00 0.00 42 1006.1
20260505021104 17 248 0.0 0.0 0.00 0.00 0.00 42 1006.2
20260505020502 17 248 0.0 0.0 0.00 0.00 0.00 42 1006.2
20260505020007 17 248 0.0 0.0 0.00 0.00 0.00 41 1006.2
20260505015507 17 248 0.0 0.0 0.00 0.00 0.00 40 1006.1
20260505015103 17 248 0.0 0.0 0.00 0.00 0.00 40 1006.1
20260505014601 17 248 0.0 0.0 0.00 0.00 0.00 40 1006.1
20260505014004 18 248 0.0 0.0 0.00 0.00 0.00 39 1005.9
20260505013504 18 248 0.0 0.0 0.00 0.00 0.00 39 1005.9
20260505013105 18 248 0.0 0.0 0.00 0.00 0.00 39 1005.9
20260505012600 18 248 0.0 0.0 0.00 0.00 0.00 38 1005.8
20260505012102 18 248 0.0 0.0 0.00 0.00 0.00 38 1005.8
20260505011605 18 248 0.0 0.0 0.00 0.00 0.00 38 1005.8
20260505011056 18 248 0.0 0.0 0.00 0.00 0.00 37 1005.7
20260505010539 18 248 0.0 0.0 0.00 0.00 0.00 37 1005.7
20260505010053 18 248 0.0 0.0 0.00 0.00 0.00 36 1005.7
20260505005544 18 248 0.0 0.0 0.00 0.00 0.00 37 1005.6
20260505005056 18 248 0.0 0.0 0.00 0.00 0.00 36 1005.6
20260505004604 19 248 0.0 0.0 0.00 0.00 0.00 36 1005.6
20260505004050 19 248 0.0 0.0 0.00 0.00 0.00 35 1005.4
20260505003554 19 248 0.0 0.0 0.00 0.00 0.00 35 1005.4
20260505003059 19 248 0.0 0.0 0.00 0.00 0.00 35 1005.4
20260505002601 19 248 0.0 0.0 0.00 0.00 0.00 35 1005.4
20260505002103 20 248 0.0 0.0 0.00 0.00 0.00 34 1005.4
20260505001609 20 248 0.0 0.0 0.00 0.00 0.00 34 1005.4
20260505001001 20 248 0.0 0.0 0.00 0.00 0.00 33 1005.2
20260505000558 20 248 0.0 0.0 0.00 0.00 0.00 33 1005.2
20260505000104 20 248 0.0 0.0 0.00 0.00 0.00 33 1005.2
20260504235605 20 248 0.0 0.0 0.00 0.00 0.00 32 1005.1
20260504235001 20 248 0.0 0.0 0.00 0.00 0.00 32 1005.1
20260504234553 20 248 0.0 0.0 0.00 0.00 0.00 31 1005.1
20260504234055 20 248 0.0 0.0 0.00 0.00 0.00 31 1005.2
20260504233559 20 248 0.0 0.0 0.00 0.00 0.00 31 1005.2
20260504233109 20 248 0.0 0.0 0.00 0.00 0.00 31 1005.2
20260504232603 21 248 0.0 0.0 0.00 0.00 0.00 31 1005.2
20260504232003 21 248 0.0 0.0 0.00 0.00 0.00 31 1005.2
20260504231603 21 248 0.0 0.0 0.00 0.00 0.00 31 1005.2
20260504231101 21 287 0.0 0.0 0.00 0.00 0.00 31 1005.2
20260504230604 21 287 0.0 0.0 0.00 0.00 0.00 31 1005.2
20260504230000 21 287 0.0 0.0 0.00 0.00 0.00 31 1005.2
20260504225555 21 287 0.0 0.0 0.00 0.00 0.00 31 1005.3
20260504225103 21 285 0.0 0.0 0.00 0.00 0.00 31 1005.3
20260504224603 21 287 0.0 0.0 0.00 0.00 0.00 31 1005.3
20260504224051 21 287 0.0 0.0 0.00 0.00 0.00 31 1005.2
20260504223552 21 287 0.0 0.0 0.00 0.00 0.00 30 1005.2
20260504223055 21 287 0.0 0.0 0.00 0.00 0.00 30 1005.2
20260504222558 21 287 0.0 0.0 0.00 0.00 0.00 30 1005.4
20260504222049 21 287 0.0 0.0 0.00 0.00 0.00 30 1005.4
20260504221553 21 192 0.0 0.0 0.00 0.00 0.00 29 1005.4
20260504221056 21 192 0.0 0.0 0.00 0.00 0.00 29 1005.4
20260504220605 21 192 0.0 0.0 0.00 0.00 0.00 30 1005.4
20260504220002 21 192 0.0 0.0 0.00 0.00 0.00 29 1005.4
20260504215505 21 174 0.0 0.0 0.00 0.00 0.00 29 1005.6
20260504215057 21 172 0.0 0.0 0.00 0.00 0.00 29 1005.6
20260504214601 21 203 0.0 0.0 0.00 0.00 0.00 30 1005.6
20260504214104 21 189 0.0 0.0 0.00 0.00 0.00 29 1005.6
20260504213505 21 127 0.0 0.0 0.00 0.00 0.00 27 1005.6
20260504213100 21 143 0.0 0.0 0.00 0.00 0.00 28 1005.6
20260504212602 22 184 0.0 0.0 0.00 0.00 0.00 28 1005.5
20260504212107 22 258 0.0 0.0 0.00 0.00 0.00 27 1005.5
20260504211502 22 258 0.0 0.0 0.00 0.00 0.00 28 1005.5
20260504211059 22 260 0.0 0.0 0.00 0.00 0.00 28 1005.4
20260504210601 22 250 0.0 0.0 0.00 0.00 0.00 28 1005.4
20260504210109 22 250 0.0 0.0 0.00 0.00 0.00 28 1005.4
20260504205501 21 250 0.0 0.0 0.00 0.00 0.00 28 1005.4
20260504205054 21 250 0.0 0.0 0.00 0.00 0.00 27 1005.4
20260504204619 21 250 0.0 0.0 0.00 0.00 0.00 28 1005.4
20260504204105 21 196 0.0 0.0 0.00 0.00 0.00 29 1005.6
20260504203501 21 205 0.0 0.0 0.00 0.00 0.00 28 1005.6
20260504203105 21 246 0.0 0.0 0.00 0.00 0.00 27 1005.6
20260504202601 21 246 0.0 0.0 0.00 0.00 0.00 27 1005.8
20260504202107 21 246 0.0 0.0 0.00 0.00 0.00 27 1005.8
20260504201552 21 217 0.0 0.0 0.00 0.00 0.00 28 1005.8
20260504201102 21 336 0.0 0.0 0.00 0.00 0.00 28 1006.0
20260504200601 21 239 0.0 0.0 0.00 0.00 0.00 29 1006.0
20260504200103 21 229 0.0 0.0 0.00 0.00 0.00 29 1006.0
20260504195551 21 229 0.0 0.0 0.00 0.00 0.00 27 1006.2
20260504195055 21 267 0.0 0.0 0.00 0.00 0.00 28 1006.2
20260504194608 21 270 0.0 0.0 0.00 0.00 0.00 29 1006.2
20260504194051 21 258 0.0 0.0 0.00 0.00 0.00 28 1006.3
20260504193554 21 258 0.0 0.0 0.00 0.00 0.00 29 1006.3
20260504193102 21 179 0.0 0.0 0.00 0.00 0.00 30 1006.3
20260504192608 21 323 0.0 0.0 0.00 0.00 0.00 27 1006.5
20260504192055 21 263 0.0 0.0 0.00 0.00 0.00 28 1006.5
20260504191557 21 244 0.0 0.0 0.00 0.00 0.00 27 1006.5
20260504191059 21 244 0.0 0.0 0.00 0.00 0.00 28 1006.6
20260504190606 21 244 0.0 0.0 0.00 0.00 0.00 27 1006.6
20260504190121 21 243 0.0 0.0 0.00 0.00 0.00 28 1006.6
20260504185556 21 244 0.0 0.0 0.00 0.00 0.00 28 1006.8
20260504185058 21 244 0.0 0.0 0.00 0.00 0.00 28 1006.8
20260504184550 21 244 0.0 0.0 0.00 0.00 0.00 28 1006.8
20260504184053 21 114 0.0 0.0 0.00 0.00 0.00 27 1006.9
20260504183559 21 114 0.0 0.0 0.00 0.00 0.00 27 1006.9
20260504183102 22 168 0.0 0.0 0.00 0.00 0.00 27 1006.9
20260504182606 21 99 0.0 0.0 0.00 0.00 0.00 28 1007.2
20260504182004 21 99 0.0 0.0 0.00 0.00 0.00 27 1007.2
20260504181557 21 99 0.0 0.0 0.00 0.00 0.00 27 1007.2
20260504181102 21 240 0.0 0.0 0.00 0.00 0.00 26 1007.5
20260504180606 21 268 0.0 0.0 0.00 0.00 0.00 26 1007.5
20260504180004 21 268 0.0 0.0 0.00 0.00 0.00 26 1007.5
20260504175558 21 268 0.0 0.0 0.00 0.00 0.00 26 1007.7
20260504175058 21 265 0.0 0.0 0.00 0.00 0.00 27 1007.7
20260504174610 21 280 0.0 0.0 0.00 0.00 0.00 27 1007.7
20260504174104 21 280 0.0 0.0 0.00 0.00 0.00 26 1007.8
20260504173609 21 6 0.0 0.0 0.00 0.00 0.00 26 1007.8
20260504173005 21 232 0.0 0.0 0.00 0.00 0.00 27 1007.8
20260504172507 21 167 0.0 0.0 0.00 0.00 0.00 26 1008.0
20260504172010 21 248 0.0 0.0 0.00 0.00 0.00 26 1008.0
20260504171605 21 248 0.0 0.0 0.00 0.00 0.00 27 1008.0
20260504171106 21 244 0.0 0.0 0.00 0.00 0.00 27 1008.2
20260504170505 20 241 0.0 0.0 0.00 0.00 0.00 27 1008.2
20260504151054 18 253 0.0 0.0 0.00 0.00 0.00 35 1009.4
20260504150608 18 253 0.0 0.0 0.00 0.00 0.00 34 1009.4
20260504141101 15 0 0.0 0.0 0.00 0.00 0.00 48 1009.6
20260504140603 15 282 0.0 0.0 0.00 0.00 0.00 50 1009.6
20260504130600 12 209 0.0 0.0 0.00 0.00 0.00 63 1010.1
20260504130104 12 196 0.0 0.0 0.00 0.00 0.00 62 1010.1
20260504110555 6 270 0.0 0.0 0.00 0.00 0.00 84 1010.6
20260504110103 6 270 0.0 0.0 0.00 0.00 0.00 84 1010.6
20260504100605 6 270 0.0 0.0 0.00 0.00 0.00 80 1010.6
20260504081608 8 270 0.0 0.0 0.00 0.00 0.00 61 1010.5
20260504081057 8 270 0.0 0.0 0.00 0.00 0.00 60 1010.6
20260504080559 8 270 0.0 0.0 0.00 0.00 0.00 61 1010.6
20260504060126 8 270 0.0 0.0 0.00 0.00 0.00 57 1010.5
20260504050601 8 270 0.0 0.0 0.00 0.00 0.00 47 1010.6
20260504050116 8 270 0.0 0.0 0.00 0.00 0.00 48 1010.6
20260504045504 8 270 0.0 0.0 0.00 0.00 0.00 47 1010.7
20260504045006 8 270 0.0 0.0 0.00 0.00 0.00 48 1010.7
20260504044604 8 270 0.0 0.0 0.00 0.00 0.00 50 1010.7
20260504044106 8 270 0.0 0.0 0.00 0.00 0.00 51 1010.5
20260504043504 8 270 0.0 0.0 0.00 0.00 0.00 52 1010.5
20260504043006 8 270 0.0 0.0 0.00 0.00 0.00 54 1010.5
20260504042600 8 270 0.0 0.0 0.00 0.00 0.00 53 1010.3
20260504042104 8 270 0.0 0.0 0.00 0.00 0.00 53 1010.3
20260504041500 8 270 0.0 0.0 0.00 0.00 0.00 50 1010.3
20260504041003 8 270 0.0 0.0 0.00 0.00 0.00 52 1010.3
20260504040504 8 270 0.0 0.0 0.00 0.00 0.00 52 1010.3
20260504040007 8 270 0.0 0.0 0.00 0.00 0.00 51 1010.3
20260504035512 8 270 0.0 0.0 0.00 0.00 0.00 52 1010.2